Regional Weather Roundup
Issued by NWS

Home | Current Version | Previous Version | Text Only | Print | Product List | Glossary Off
Versions: 1 2 3 4 5 6 7 8 9 10 11 12 13 14 15 16 17 18 19 20 21 22 23 24 25 26 27 28 29 30 31 32 33 34 35 36 37 38 39 40 41 42 43 44 45 46 47 48 49 50

000
ASUS43 KMKX 060900
RWRWI

WISCONSIN REGIONAL WEATHER ROUNDUP
NATIONAL WEATHER SERVICE MILWAUKEE/SULLIVAN WI
400 AM CDT FRI MAY 06 2016

NOTE: "FAIR" INDICATES FEW OR NO CLOUDS BELOW 12,000 FEET WITH NO
SIGNIFICANT WEATHER AND/OR OBSTRUCTIONS TO VISIBILITY.

WIZ001-002-006>008-014>016-023>028-061000-
NORTHWEST WISCONSIN

CITY           SKY/WX    TMP DP  RH WIND       PRES   REMARKS
SUPERIOR ARPT  CLEAR     43  38  82 W3        29.77S
ASHLAND        PTCLDY    63  41  44 SW9       29.76F
HAYWARD        CLEAR     46  39  76 CALM      29.82S
SIREN          CLEAR     62  43  49 W8        29.83R
CUMBERLAND     CLEAR     54  39  58 SW5       29.84S
RICE LAKE      CLEAR     48  41  78 CALM      29.85F
CHETEK         CLEAR     46  43  89 CALM      29.84F
LADYSMITH      CLEAR     50  39  66 SE3       29.86F
EAU CLAIRE     NOT AVBL
MENOMONIE      CLEAR     49  40  72 E7        29.85S
NEW RICHMOND   CLEAR     52  41  67 S3        29.86S
OSCEOLA        CLEAR     51  44  77 CALM      29.87S
$$

WIZ003>005-009-010-017-018-061000-
NORTH CENTRAL WISCONSIN

CITY           SKY/WX    TMP DP  RH WIND       PRES   REMARKS
MANITOWISH WTR CLOUDY    49  43  79 S5        29.83F
ARBOR VITAE    PTCLDY    53  40  60 S3        29.85S
WOODRUFF       PTCLDY    53  40  60 S3        29.85S
RHINELANDER    PTCLDY    54  37  52 SW7       29.86F
EAGLE RIVER    CLEAR     48  35  60 S3        29.85F
LAND O LAKES   CLEAR     49  37  63 CALM      29.85F
PHILLIPS       CLEAR     52  38  57 S6        29.83F
TOMAHAWK       CLEAR     41  38  88 CALM      29.87F
MEDFORD        PTCLDY    49  40  72 S6        29.87S
MERRILL        CLEAR     39  39 100 CALM      29.87F
$$

WIZ029-030-035-036-043>047-061000-
CENTRAL WISCONSIN

CITY           SKY/WX    TMP DP  RH WIND       PRES   REMARKS
WAUSAU         CLEAR     53  42  66 CALM      29.86F
MOSINEE        CLEAR     46  39  76 S7        29.89F
MARSHFIELD     CLEAR     51  38  60 SW3       29.87F
STEVENS POINT  CLOUDY    45  38  76 CALM      29.89F
WAUPACA        CLEAR     46  38  76 CALM      29.91S
WAUTOMA        NOT AVBL
WISC RAPIDS    MOCLDY    50  38  63 SW5       29.90F
CAMP DOUGLAS   NOT AVBL
$$

WIZ011>013-019>022-031-037>040-048>050-061000-
NORTHEAST WISCONSIN

CITY           SKY/WX    TMP DP  RH WIND       PRES   REMARKS
ANTIGO         CLEAR     49  38  67 CALM      29.88F
SHAWANO        CLOUDY    51  37  58 CALM      29.90R
OCONTO         CLOUDY    47  42  84 CALM      29.88S
STURGEON BAY   CLEAR     48  37  66 S6        29.91F
GREEN BAY      PTCLDY    48  43  82 S7        29.90S
MANITOWOC      NOT AVBL
APPLETON       CLOUDY    50  34  53 SW6       29.89F
CLINTONVILLE   CLEAR     45  36  70 S3        29.89S
OSHKOSH        CLOUDY    50  36  58 S3        29.91F
$$

WIZ032>034-041-042-053>061-061000-
SOUTHWEST WISCONSIN

CITY           SKY/WX    TMP DP  RH WIND       PRES   REMARKS
LA CROSSE      CLEAR     55  42  61 SE7       29.89F
SPARTA         CLEAR     44  41  87 CALM      29.91S
VIROQUA        CLOUDY    54  38  54 S5        29.93R
BOSCOBEL       CLEAR     45  41  86 CALM      29.94S
PRAIRIE DU CHI CLEAR     49  39  70 CALM      29.92F
PLATTEVILLE    CLEAR     49  39  68 S7        29.95F
$$

WIZ056-057-062-063-064-067-068-061000-
SOUTH CENTRAL WISCONSIN

CITY           SKY/WX    TMP DP  RH WIND       PRES   REMARKS
REEDSBURG      PTCLDY    48  41  77 CALM      29.92S
BARABOO/DELLS  MOCLDY    50  38  62 SW5       29.92S
LONE ROCK      NOT AVBL
MINERAL POINT  CLEAR     52  36  54 S6        29.94F
MADISON        PTCLDY    46  40  79 CALM      29.94S
MIDDLETON      PTCLDY    52  37  55 SE3       29.95R
WATERTOWN      PTCLDY    43  43  99 CALM      29.94S
MONROE         CLEAR     50  36  57 SW9       29.95S
JANESVILLE     CLOUDY    46  43  87 CALM      29.95S
$$

WIZ051-052-058>065-066-070>072-061000-
SOUTHEAST WISCONSIN

CITY           SKY/WX    TMP DP  RH WIND       PRES   REMARKS
MILWAUKEE      CLOUDY    49  40  71 S5        29.94F
WAUKESHA       CLOUDY    45  41  87 CALM      29.95S
MILWAUKEE/TIMM CLOUDY    48  37  66 CALM      29.95F
RACINE         CLOUDY    48  38  68 CALM      29.96S
BURLINGTON     CLOUDY    44  41  91 S3        29.95S
KENOSHA        CLOUDY    44  40  85 W6        29.95S
FOND DU LAC    PTCLDY    47  39  74 S5        29.92F
SHEBOYGAN      CLOUDY    50  41  71 SW3       29.93R
WEST BEND      CLOUDY    45  41  87 CALM      29.93S
JUNEAU         CLEAR     44  38  81 SE5       29.95S
$$

LSZ147-162-061000-
LAKE SUPERIOR

STATION/POSITION TIME  TEMP    WIND        PRES    WAVE
                       AIR SEA DIR/SP/G            HT/PER
                 (UTC) (F)     (DEG/KT/KT) (MB)    (FT/S)
W MID LAKE BUOY  0750   44 37  190/ 10/ 10 1007.4F   1
DEVILS ISLAND    0800   40     280/  4/  4 1007.8F
SAXON HARBOR     0800   64     170/ 13/ 19 1007.5F
$$

LMZ867-665-643>646-061000-
LAKE MICHIGAN

STATION/POSITION TIME  TEMP    WIND        PRES    WAVE
                       AIR SEA DIR/SP/G            HT/PER
                 (UTC) (F)     (DEG/KT/KT) (MB)    (FT/S)
CHAMBERS ISLAND  0800   51     180/  5/ 11 1012.2S
N MID LAKE BUOY  0750   41 39  190/  8/ 10 1012.8F   0
NORTHPORT PIER   0800   48     180/  4/  8 1012.2S
ALGOMA LAKESHORE 0815          220/  9/ 10   N/A
KEWAUNEE LAKESHO 0800   47     160/  7/  7 1012.1F
SHEBOYGAN LAKESH 0800   50     220/  8/  9 1013.7F
PORT WASHINGTON  0800   49     250/  4/  4 1014.2F
S MID LAKE BUOY  0750   42 40  220/  4/  6 1014.7F   1/ 5
KENOSHA   LAKESH 0800   48     220/  3/  5 1014.2F
$$

TC  - TEMPERATURE IN CELSIUS
VSB - VISIBILITY IN STATUTE MILES
WCI - WIND CHILL INDEX
HX  - HEAT INDEX





USA.gov is the U.S. government's official web portal to all federal, state and local government web resources and services.